Showing default

PIAST-S1, 66749

Orbit data source: Space-Track

PIAST-S1, 66749 is a Polish payload satellite in SSO that was launched on Fri, 28 Nov 2025 UTC via an FALCON 9 launch vehicle from the Air Force Western Test Range (AFWTR). Payload-class satellites include a variety of spacecraft equipped with specific instruments for various scientific and technological missions. These include communications satellites like Starlink; space stations such as the ISS; scientific satellites like the Hubble; Earth observation satellites from companies like Planet Labs, Umbra, and HawkEye 360; GPS; miniature CubeSats for education and research; and military/defense satellites.

Loading next visibility...
Identifier
66749, 2025-276CM
Orbit
SSO
Country
Flag of PLPL / POL
Related business
Manufacturer
CREO
Mission
Operational Amateur Imaging
Bus & Motor
CUBESAT 6U, Unknown motor
Mass
12 kg wet, 12 kg dry
Launch date (UTC)
2025-11-28 (4 months ago)
Launch vehicle
FALCON 9
Launch site
Air Force Western Test Range (AFWTR)
Object type
Payload
Rocket body
Debris
Shape & HBR
Box + 1 Pan, 0.1 m
Radar Cross Section
0.080 m²

Expand to show TLE details & history
Last TLE update: 9 hours ago

TLE from 9 hours ago
0 PIAST-S1
1 66749U 25276CM  26095.46200491  .00007964  00000-0  37811-3 0  9991
2 66749  97.4223 170.3156 0002026 179.8044 180.3192 15.19508820 19381
Epoch: 2026-04-05T11:05Z
TLE epoch observation values (Epoch: 2026-04-05T11:05:17.224Z)
Latitude
-0°
Longitude
170.22675°
Altitude
511.809 km
Speed
7.607 km/s
True Right ascension
11h 21m 15s
True Declination
0° 00' 00"
Sunlit
Object was in full shadow at epoch
Visualization orbit readout
Latitude
Unknown
Longitude
Unknown
Altitude
Unknown
Speed
Unknown
Apparent Right ascension
Unknown
Apparent Declination
Unknown
Sunlit
N/A
Visualization observer readout
Local Sidereal Time
01:55:14
Azimuth
Unknown
Elevation
Unknown
Doppler factor
Unknown
Orbital elements
Apogee altitude
505.686 km
Perigee altitude
502.897 km
Semi-major axis
6,882.428 km
Eccentricity
0.0002
Inclination
97.4223°
RAAN
170.3156°
Arg. of periapsis
179.8044°
True anomaly
180.31907°
Mean anomaly
180.3192°
Eccentric anomaly
180.31914°
Mean motion
3.80129 °/min
Orbital period
94.7 mins
BSTAR
0.00037811
Loading maneuver chart data...
Computing Atmospheric mass density...
Loading historical data...
Loading historical data...
Loading historical data...
Loading historical data...
Loading historical data...
Loading historical data...
Loading historical data...

Documentation

Showing up to 5 results
|